Snowfall_Accumulation
0.0 0.0 0.0 0.0 0.0 0.0 0.0 0.0 0.0 0.0 0.0 0.0 0.0 0.0 0.0 0.0 0.0 0.0 0.0 0.0 0.0 0.0 0.0 0.0 0.0 0.0 0.0 0.0 0.0 0.0 0.0 0.0 0.0 0.0 0.0 0.0 0.0 0.0 0.0 0.0 0.0 0.0 0.0 0.0 0.0 0.0 0.0 0.0 0.0
0.0 0.0 0.0 0.0 0.0 0.1 0.0 0.0 0.0 0.0 0.0 0.0 0.0 0.0 0.0 0.0 0.0 0.0 0.0 0.0 0.0 0.0 0.0 0.0 0.0 0.0 0.0 0.0 0.0 0.0 0.0 0.0 0.0 0.0 0.0 0.0 0.0 0.0 0.0 0.0 0.0 0.0 0.0 0.0 0.0 0.0 0.0 0.0 0.0
0.0 0.0 0.0 0.0 0.0 0.0 0.0 0.0 0.0 0.0 0.0 0.0 0.0 0.0 0.0 0.0 0.0 0.0 0.0 0.0 0.0 0.0 0.0 0.0 0.0 0.0 0.0 0.0 0.0 0.0 0.0 0.0 0.0 0.0 0.0 0.0 0.0 0.0 0.0 0.0 0.0 0.0 0.0 0.0 0.0 0.0 0.0 0.0 0.0
0.0 0.0 0.0 0.0 0.0 0.0 0.0 0.0 0.0 0.0 0.0 0.0 0.0 0.0 0.0 0.0 0.0 0.0 0.0 0.0 0.0 0.0 0.0 0.0 0.0 0.0 0.0 0.0 0.0 0.0 0.0 0.0 0.0 0.0 0.0 0.0 0.0 0.0 0.0 0.0 0.0 0.0 0.0 0.0 0.0 0.0 0.0 0.0 0.0
0.0 0.0 0.0 0.0 0.1 0.0 0.0 0.0 0.0 0.0 0.0 0.0 0.0 0.0 0.0 0.0 0.0 0.0 0.0 0.0 0.0 0.0 0.0 0.0 0.0 0.0 0.0 0.0 0.0 0.0 0.0 0.0 0.0 0.0 0.0 0.0 0.0 0.0 0.0 0.0 0.0 0.0 0.0 0.0 0.0 0.0 0.0 0.0 0.0
0.0 0.0 0.2 0.3 0.0 0.0 0.0 0.0 0.0 0.0 0.0 0.0 0.0 0.0 0.0 0.0 0.0 0.0 0.0 0.0 0.0 0.0 0.0 0.0 0.0 0.0 0.0 0.0 0.0 0.0 0.0 0.0 0.0 0.0 0.0 0.0 0.0 0.0 0.0 0.0 0.0 0.0 0.0 0.0 0.0 0.0 0.0 0.0 0.0
0.1 0.2 0.5 0.1 0.0 0.0 0.0 0.0 0.0 0.0 0.0 0.0 0.0 0.0 0.0 0.0 0.0 0.0 0.0 0.0 0.0 0.0 0.0 0.0 0.0 0.0 0.0 0.0 0.0 0.0 0.0 0.0 0.0 0.0 0.0 0.0 0.0 0.0 0.0 0.0 0.0 0.0 0.0 0.0 0.0 0.0 0.0 0.0 0.0
0.1 0.3 0.5 0.2 0.2 0.0 0.0 0.0 0.0 0.0 0.0 0.0 0.0 0.0 0.0 0.0 0.0 0.0 0.0 0.0 0.0 0.0 0.0 0.0 0.0 0.0 0.0 0.0 0.0 0.0 0.0 0.0 0.0 0.0 0.0 0.0 0.0 0.0 0.0 0.0 0.0 0.0 0.0 0.0 0.0 0.0 0.0 0.0 0.0
0.1 0.7 1.7 0.7 0.2 0.1 0.0 0.0 0.0 0.0 0.0 0.0 0.0 0.0 0.0 0.0 0.0 0.0 0.0 0.0 0.0 0.0 0.0 0.0 0.0 0.0 0.0 0.0 0.0 0.0 0.0 0.0 0.0 0.0 0.0 0.0 0.0 0.0 0.0 0.0 0.0 0.0 0.0 0.0 0.0 0.0 0.0 0.0 0.0
0.3 1.5 0.8 0.1 0.1 0.1 0.1 0.1 0.0 0.0 0.0 0.0 0.0 0.0 0.0 0.0 0.0 0.0 0.0 0.0 0.0 0.0 0.0 0.0 0.0 0.0 0.0 0.0 0.0 0.0 0.0 0.0 0.0 0.0 0.0 0.0 0.0 0.0 0.0 0.0 0.0 0.0 0.0 0.0 0.0 0.0 0.0 0.0 0.0
0.8 1.0 0.1 0.0 0.0 0.1 0.1 0.1 0.1 0.1 0.1 0.0 0.0 0.0 0.0 0.0 0.0 0.0 0.0 0.1 0.0 0.0 0.0 0.0 0.0 0.0 0.0 0.0 0.0 0.0 0.0 0.0 0.0 0.0 0.0 0.0 0.0 0.0 0.0 0.0 0.0 0.0 0.0 0.0 0.0 0.0 0.0 0.0 0.0
0.7 0.5 0.1 0.0 0.0 0.0 0.1 0.1 0.1 0.1 0.0 0.0 0.0 0.0 0.0 0.0 0.0 0.0 0.0 0.0 0.0 0.0 0.0 0.0 0.0 0.0 0.0 0.0 0.0 0.0 0.0 0.0 0.0 0.0 0.0 0.0 0.0 0.0 0.0 0.0 0.0 0.0 0.0 0.0 0.0 0.0 0.0 0.0 0.0
0.6 0.3 0.2 0.2 0.0 0.0 0.0 0.1 0.1 0.1 0.0 0.0 0.0 0.0 0.0 0.0 0.0 0.0 0.0 0.0 0.0 0.0 0.0 0.0 0.0 0.0 0.0 0.0 0.0 0.0 0.0 0.0 0.0 0.0 0.0 0.0 0.0 0.0 0.0 0.0 0.0 0.0 0.0 0.0 0.0 0.0 0.0 0.0 0.0
0.4 0.2 0.2 0.2 0.1 0.1 0.1 0.1 0.0 0.1 0.0 0.0 0.0 0.0 0.0 0.0 0.0 0.0 0.0 0.0 0.0 0.0 0.0 0.0 0.0 0.0 0.0 0.0 0.1 0.0 0.1 0.0 0.0 0.0 0.0 0.0 0.0 0.0 0.0 0.0 0.0 0.0 0.0 0.0 0.0 0.0 0.0 0.0 0.0
0.3 0.6 0.4 0.2 0.2 0.2 0.2 0.3 0.1 0.0 0.0 0.1 0.0 0.0 0.0 0.1 0.1 0.1 0.0 0.0 0.0 0.0 0.0 0.0 0.0 0.1 0.0 0.0 0.0 0.1 0.1 0.1 0.0 0.0 0.0 0.0 0.0 0.0 0.0 0.0 0.0 0.0 0.0 0.0 0.0 0.0 0.0 0.0 0.0
0.5 1.2 2.2 0.5 0.3 0.3 0.7 1.9 0.1 0.1 0.0 0.0 0.1 0.0 0.0 0.1 0.1 0.1 0.1 0.1 0.0 0.0 0.0 0.0 0.1 0.1 0.0 0.0 0.0 0.1 0.1 0.1 0.1 0.0 0.0 0.0 0.0 0.0 0.0 0.0 0.0 0.0 0.0 0.0 0.0 0.0 0.0 0.0 0.0
5.3 7.2 4.6 1.3 0.3 0.3 0.8 1.2 0.2 0.1 0.1 0.1 0.1 0.1 0.3 0.3 0.2 0.1 0.2 0.1 0.1 0.1 0.1 0.1 0.1 0.1 0.1 0.0 0.0 0.0 0.1 0.2 0.0 0.0 0.0 0.0 0.0 0.1 0.1 0.0 0.0 0.0 0.0 0.0 0.0 0.0 0.0 0.0 0.0
6.5 5.7 3.9 2.3 0.4 0.6 1.0 1.0 0.4 0.3 0.3 0.3 0.5 0.3 0.4 0.3 0.2 0.2 0.2 0.2 0.1 0.1 0.1 0.1 0.1 0.1 0.1 0.1 0.0 0.1 0.1 0.1 0.0 0.0 0.0 0.0 0.0 0.0 0.0 0.0 0.0 0.0 0.0 0.0 0.0 0.0 0.0 0.0 0.0
2.3 3.1 3.4 1.9 0.6 1.0 1.3 1.1 0.6 0.5 0.4 0.5 0.6 0.5 0.5 0.3 0.4 0.2 0.2 0.3 0.1 0.1 0.2 0.2 0.1 0.1 0.1 0.2 0.1 0.1 0.1 0.1 0.2 0.0 0.0 0.0 0.0 0.0 0.0 0.0 0.0 0.0 0.1 0.0 0.1 0.1 0.0 0.0 0.0
2.9 4.1 3.8 1.8 0.6 1.2 1.9 1.3 0.9 0.9 0.6 0.6 0.8 0.6 0.4 0.4 0.4 0.3 0.3 0.3 0.3 0.2 0.3 0.2 0.2 0.1 0.2 0.2 0.3 0.1 0.1 0.1 0.1 0.0 0.0 0.0 0.0 0.0 0.1 0.0 0.0 0.0 0.1 0.1 0.1 0.1 0.1 0.1 0.0
3.1 3.3 3.1 2.9 1.9 1.3 2.8 3.5 1.5 1.1 0.6 0.6 0.6 0.6 0.5 0.4 0.5 0.5 0.5 0.6 0.4 0.3 0.3 0.3 0.3 0.2 0.3 0.2 0.2 0.1 0.1 0.1 0.2 0.2 0.0 0.0 0.0 0.1 0.1 0.0 0.2 0.3 0.1 0.1 0.2 0.1 0.2 0.2 0.1
4.3 1.2 1.4 2.8 5.5 8.3 6.9 12.6 3.1 1.7 0.9 0.7 0.6 0.5 0.5 0.4 0.4 0.5 0.6 0.5 0.5 0.5 0.4 0.4 0.5 0.5 0.2 0.2 0.2 0.4 0.4 0.4 0.4 0.4 0.4 0.1 0.1 0.1 0.2 0.0 0.1 0.2 0.3 0.1 0.2 0.2 0.5 0.3 0.5
3.1 1.1 1.7 2.9 6.2 9.5 5.7 10.6 6.3 1.5 1.9 1.5 0.8 0.6 0.6 0.6 0.5 0.7 0.5 0.5 0.4 0.4 0.4 0.3 0.3 0.4 0.5 0.3 0.4 0.6 0.9 0.8 0.6 0.5 0.4 0.2 0.2 0.2 0.2 0.2 0.2 0.2 0.3 0.4 0.5 0.3 0.3 0.4 0.3
1.8 2.0 2.7 4.5 8.2 14.1 7.4 8.5 8.9 4.8 4.0 2.1 1.0 0.6 0.6 0.8 0.8 0.7 0.5 0.4 0.4 0.4 0.3 0.3 0.4 0.5 0.6 0.7 0.5 0.9 1.1 0.9 1.0 0.8 0.6 0.4 0.3 0.3 0.4 0.5 0.2 0.3 0.3 0.4 0.5 0.6 0.6 0.5 0.4
4.5 11.1 16.7 18.4 17.4 11.1 5.0 6.6 8.5 3.5 2.1 1.5 1.5 1.3 1.0 0.8 0.8 0.8 0.7 0.5 0.4 0.3 0.4 0.4 0.5 0.5 0.8 1.0 1.0 1.0 0.9 1.3 1.3 1.4 1.3 1.3 0.9 0.7 0.7 0.8 0.8 0.5 0.4 0.6 0.9 0.7 0.7 0.6 0.7
5.0 7.8 13.1 13.0 9.4 6.1 4.2 6.3 6.7 2.4 2.0 1.5 1.5 1.3 0.9 0.8 0.7 0.8 0.9 0.9 0.6 0.6 0.5 0.5 0.4 0.6 0.7 1.0 1.2 0.9 0.8 1.0 1.8 2.2 1.6 1.6 1.6 1.4 1.3 1.0 0.7 0.8 0.5 0.5 0.9 0.8 1.1 0.8 0.9
5.6 6.2 5.1 11.0 8.2 6.1 5.7 6.4 5.4 2.3 2.1 2.4 2.0 1.5 1.6 1.0 1.0 0.8 0.7 0.8 0.8 0.8 0.7 0.6 0.5 0.6 0.7 0.8 1.1 0.8 0.9 1.1 1.4 1.9 1.9 1.6 1.5 1.5 1.7 1.4 1.1 0.9 0.6 0.7 0.8 1.2 1.1 1.3 1.0
2.6 3.6 7.1 13.4 12.6 8.0 5.5 5.6 8.0 6.2 3.9 3.0 2.1 2.0 2.0 1.7 1.4 0.8 0.8 0.7 0.8 0.8 0.7 0.6 0.5 0.6 0.8 1.0 1.3 1.4 1.2 1.2 1.2 1.3 1.6 2.0 1.6 1.5 1.4 1.6 1.8 0.9 0.9 1.1 1.0 1.2 1.2 1.1 1.3
3.5 5.4 7.7 10.4 9.8 8.8 6.1 6.2 5.5 5.0 3.7 3.4 2.6 2.3 1.9 1.8 1.6 1.2 0.8 0.7 0.6 0.6 0.7 0.8 0.7 0.8 0.8 0.9 1.1 1.4 1.3 1.3 1.4 1.7 1.8 1.8 1.9 1.9 1.7 1.6 1.8 1.5 1.1 1.2 1.1 1.3 1.4 1.3 1.1
2.3 4.2 7.0 12.1 9.8 7.4 6.6 5.9 3.0 2.6 2.4 2.4 2.3 2.0 1.6 1.6 1.5 1.1 0.7 0.6 0.8 0.8 0.8 0.8 0.9 0.9 1.1 1.2 1.2 1.5 1.2 1.3 1.4 1.5 1.7 1.9 1.8 1.7 2.0 1.8 1.8 1.7 1.5 1.4 1.7 1.3 1.3 1.7 1.6